Location: Zagreb
(45.8000°N, 16.0000°E)
Time: 14:55:43
(UTC+02:00)

Tiros 1 despin weight - Pass Details

Date: 11 August 2022
Orbit: 590 x 639 km, 48.2° (Epoch: 23 September)

Event Time Altitude Azimuth Distance (km) Brightness Sun altitude
Rises 19:52:19 0° 283° (WNW) 2,820 ? 2.2°
Reaches altitude 10° 19:55:17 10° 262° (W) 1,915 ? 1.7°
Maximum altitude 19:58:03 17° 223° (SW) 1,532 ? 1.2°
Drops below altitude 10° 20:00:50 10° 183° (S) 1,914 ? 0.8°
Sets 20:03:47 0° 163° (SSE) 2,817 ? 0.3°
